Printer-friendly version

IAU Minor Planet Center

Minor Planet Center

MPEC 2001-O37: 2000 PH5

The following Minor Planet Electronic Circular may be linked-to from your own Web pages, but must not otherwise be redistributed electronically.


Read MPEC 2001-O36 Read MPEC 2001-O38


M.P.E.C. 2001-O37                                Issued 2001 July 25, 04:55 UT

     The Minor Planet Electronic Circulars contain information on unusual
         minor planets and routine data on comets.  They are published
   on behalf of Commission 20 of the International Astronomical Union by the
          Minor Planet Center, Smithsonian Astrophysical Observatory,
                          Cambridge, MA 02138, U.S.A.

             Prepared using the Tamkin Foundation Computer Network

                              MPC@CFA.HARVARD.EDU
          URL http://cfa-www.harvard.edu/iau/mpc.html  ISSN 1523-6714

                                   2000 PH5

                           Revision to MPEC 2000-P32

Observations:
     K00P05H  C2001 07 25.19243 13 43 06.54 +64 04 44.4          16.1 R      699
     K00P05H  C2001 07 25.19297 13 43 11.93 +64 04 39.1                      699
     K00P05H  C2001 07 25.19352 13 43 17.29 +64 04 34.8                      699
     K00P05H  C2001 07 25.19405 13 43 22.72 +64 04 30.4                      699

Observer details:
699 Lowell Observatory-LONEOS.  Observers B. A. Skiff, B. W. Koehn.  0.59-m
    LONEOS Schmidt + CCD.

First and last observations above in comparison with prediction:
Residuals in seconds of arc (or two decimals in degrees), reference and Delta-T
010725 699 0.66+ 4.10+    010725 699 0.66+ 4.10+    MPO  3961   -0.091 day

Orbital elements:
2000 PH5
Epoch 2001 Apr. 1.0 TT = JDT 2452000.5                  Williams
M 326.28621              (2000.0)            P               Q
n   0.98852259     Peri.  271.22594     -0.96204055     +0.27065757
a   0.9980332      Node   284.47826     -0.23382568     -0.88354471
e   0.2295303      Incl.    2.06942     -0.14072499     -0.38222144
P   1.00           H   22.5           G   0.15           U   4
Residuals in seconds of arc
000803 704  0.1-  0.2-    000806 474  0.4-  0.1+    000807 587  1.0-  0.6+
000803 704  0.1+  0.2+    000806 474  0.3-  0.6-    000807 587  1.2-  0.7+
000803 704  0.5+  0.5+    000806 474  0.1-  0.2-    000810 413  0.1+  0.2-
000803 704  0.3+  0.8+    000806 422  0.7-  0.5-    000810 413  0.1+  0.0
000804 704  0.2-  0.3-    000806 118 (3.0-  1.0-)   000826 413  0.2+  0.3+
000804 704  0.3-  0.4+    000806 118  0.1-  0.6-    000826 413  0.1+  0.2+
000804 704  0.5+  0.6+    000806 118  1.3+  0.3+    000902 413  0.3+  0.1+
000804 704  0.8+  0.7+    000807 474  0.7-  0.4-    000902 413  0.1-  0.4+
000804 611  0.7+  0.4+    000807 474  0.1-  0.0     000902 413  0.2-  0.3+
000804 611  0.0   0.5-    000807 474  0.1-  0.2-    010725 699  0.3+  0.5+
000805 711  0.9-  0.3-    000807 474  0.4+  0.8-    010725 699  0.3+  0.3-
000805 711  0.5-  0.3-    000807 474  1.2+  0.3-    010725 699  0.7-  0.1-
000805 711  1.1-  0.5-    000807 474  1.2+  0.3-    010725 699  0.1+  0.1-
000806 474  0.4-  0.1+    000807 474  0.8+  0.2-

Ephemeris:
2000 PH5                 a,e,i = 1.00, 0.23, 2                   q = 0.7690
Date    TT    R. A. (2000) Decl.     Delta      r     Elong.  Phase     V
2001 07 20.0  08 44.29   +35 50.2    0.027    0.991    18.3   161.2    26.0
2001 07 20.1  08 45.37   +36 10.7    0.026    0.991    18.6   160.9    25.9
2001 07 20.2  08 46.50   +36 31.8    0.026    0.992    19.0   160.5    25.7
2001 07 20.3  08 47.67   +36 53.5    0.026    0.992    19.4   160.1    25.5
2001 07 20.4  08 48.88   +37 15.7    0.025    0.992    19.8   159.7    25.3
2001 07 20.5  08 50.14   +37 38.5    0.025    0.993    20.3   159.2    25.2
2001 07 20.6  08 51.45   +38 02.0    0.025    0.993    20.7   158.8    25.0
2001 07 20.7  08 52.82   +38 26.0    0.024    0.994    21.1   158.3    24.8
2001 07 20.8  08 54.24   +38 50.7    0.024    0.994    21.6   157.9    24.7
2001 07 20.9  08 55.72   +39 16.1    0.023    0.994    22.1   157.4    24.5
2001 07 21.0  08 57.26   +39 42.2    0.023    0.995    22.6   156.9    24.3
2001 07 21.1  08 58.88   +40 09.0    0.023    0.995    23.1   156.4    24.1
2001 07 21.2  09 00.56   +40 36.6    0.022    0.996    23.6   155.8    24.0
2001 07 21.3  09 02.32   +41 04.9    0.022    0.996    24.2   155.3    23.8
2001 07 21.4  09 04.17   +41 34.0    0.022    0.996    24.8   154.7    23.6
2001 07 21.5  09 06.10   +42 03.9    0.021    0.997    25.4   154.1    23.4
2001 07 21.6  09 08.13   +42 34.7    0.021    0.997    26.0   153.5    23.3
2001 07 21.7  09 10.26   +43 06.3    0.021    0.998    26.6   152.9    23.1
2001 07 21.8  09 12.49   +43 38.8    0.020    0.998    27.2   152.2    22.9
2001 07 21.9  09 14.84   +44 12.2    0.020    0.998    27.9   151.5    22.7
2001 07 22.0  09 17.32   +44 46.5    0.020    0.999    28.6   150.8    22.6
2001 07 22.1  09 19.93   +45 21.7    0.019    0.999    29.3   150.1    22.4
2001 07 22.2  09 22.69   +45 57.8    0.019    1.000    30.1   149.4    22.2
2001 07 22.3  09 25.60   +46 35.0    0.019    1.000    30.9   148.6    22.0
2001 07 22.4  09 28.69   +47 13.1    0.018    1.000    31.7   147.8    21.9
2001 07 22.5  09 31.96   +47 52.1    0.018    1.001    32.5   147.0    21.7
2001 07 22.6  09 35.42   +48 32.2    0.018    1.001    33.3   146.1    21.5
2001 07 22.7  09 39.11   +49 13.2    0.018    1.002    34.2   145.2    21.3
2001 07 22.8  09 43.03   +49 55.1    0.017    1.002    35.2   144.3    21.1
2001 07 22.9  09 47.20   +50 38.0    0.017    1.002    36.1   143.3    21.0
2001 07 23.0  09 51.66   +51 21.7    0.017    1.003    37.1   142.3    20.8
2001 07 23.1  09 56.41   +52 06.3    0.016    1.003    38.1   141.3    20.6
2001 07 23.2  10 01.51   +52 51.6    0.016    1.003    39.2   140.2    20.4
2001 07 23.3  10 06.96   +53 37.5    0.016    1.004    40.3   139.2    20.2
2001 07 23.4  10 12.81   +54 24.1    0.016    1.004    41.4   138.0    20.1
2001 07 23.5  10 19.09   +55 11.0    0.015    1.005    42.6   136.8    19.9
2001 07 23.6  10 25.85   +55 58.3    0.015    1.005    43.8   135.6    19.7
2001 07 23.7  10 33.12   +56 45.5    0.015    1.005    45.0   134.4    19.5
2001 07 23.8  10 40.95   +57 32.6    0.015    1.006    46.3   133.1    19.4
2001 07 23.9  10 49.39   +58 19.2    0.014    1.006    47.7   131.7    19.2
2001 07 24.0  10 58.48   +59 05.0    0.014    1.007    49.1   130.3    19.0
2001 07 24.1  11 08.27   +59 49.7    0.014    1.007    50.5   128.9    18.8
2001 07 24.2  11 18.81   +60 32.6    0.014    1.007    51.9   127.4    18.7
2001 07 24.3  11 30.13   +61 13.5    0.014    1.008    53.5   125.9    18.5
2001 07 24.4  11 42.26   +61 51.6    0.013    1.008    55.0   124.4    18.3
2001 07 24.5  11 55.23   +62 26.4    0.013    1.009    56.6   122.8    18.2
2001 07 24.6  12 09.02   +62 57.2    0.013    1.009    58.2   121.1    18.0
2001 07 24.7  12 23.62   +63 23.4    0.013    1.009    59.9   119.5    17.9
2001 07 24.8  12 38.95   +63 44.2    0.013    1.010    61.6   117.7    17.7
2001 07 24.9  12 54.94   +63 59.0    0.013    1.010    63.4   116.0    17.6
2001 07 25.0  13 11.47   +64 07.2    0.012    1.011    65.2   114.2    17.4
2001 07 25.1  13 28.38   +64 08.3    0.012    1.011    67.0   112.4    17.3
2001 07 25.2  13 45.49   +64 02.0    0.012    1.011    68.8   110.5    17.2
2001 07 25.3  14 02.63   +63 47.9    0.012    1.012    70.7   108.6    17.0
2001 07 25.4  14 19.60   +63 26.0    0.012    1.012    72.6   106.8    16.9
2001 07 25.5  14 36.22   +62 56.6    0.012    1.013    74.5   104.8    16.8
2001 07 25.6  14 52.33   +62 19.8    0.012    1.013    76.4   102.9    16.7
2001 07 25.7  15 07.81   +61 36.1    0.012    1.013    78.4   101.0    16.6
2001 07 25.8  15 22.57   +60 46.0    0.012    1.014    80.3    99.0    16.5
2001 07 25.9  15 36.54   +59 50.2    0.012    1.014    82.2    97.1    16.4
2001 07 26.0  15 49.68   +58 49.3    0.012    1.014    84.1    95.2    16.3
2001 07 26.1  16 01.99   +57 44.0    0.012    1.015    86.1    93.3    16.3
2001 07 26.2  16 13.48   +56 35.0    0.012    1.015    88.0    91.3    16.2
2001 07 26.3  16 24.18   +55 22.9    0.012    1.016    89.9    89.5    16.1
2001 07 26.4  16 34.13   +54 08.4    0.012    1.016    91.7    87.6    16.1
2001 07 26.5  16 43.37   +52 52.1    0.012    1.016    93.6    85.7    16.0
2001 07 26.6  16 51.94   +51 34.4    0.012    1.017    95.4    83.9    16.0
2001 07 26.7  16 59.89   +50 16.0    0.013    1.017    97.2    82.1    15.9
2001 07 26.8  17 07.28   +48 57.1    0.013    1.018    98.9    80.4    15.9
2001 07 26.9  17 14.15   +47 38.3    0.013    1.018   100.6    78.7    15.8
2001 07 27.0  17 20.53   +46 19.8    0.013    1.018   102.3    77.0    15.8
2001 07 27.1  17 26.47   +45 01.9    0.013    1.019   103.9    75.4    15.8
2001 07 27.2  17 32.01   +43 44.9    0.013    1.019   105.5    73.8    15.7
2001 07 27.3  17 37.18   +42 29.0    0.014    1.020   107.0    72.2    15.7
2001 07 27.4  17 42.01   +41 14.4    0.014    1.020   108.5    70.7    15.7
2001 07 27.5  17 46.53   +40 01.1    0.014    1.020   110.0    69.3    15.7
2001 07 27.6  17 50.77   +38 49.4    0.014    1.021   111.4    67.9    15.7
2001 07 27.7  17 54.75   +37 39.4    0.014    1.021   112.8    66.5    15.7
2001 07 27.8  17 58.49   +36 31.0    0.015    1.021   114.1    65.2    15.7
2001 07 27.9  18 02.00   +35 24.3    0.015    1.022   115.4    63.9    15.7
2001 07 28.0  18 05.32   +34 19.4    0.015    1.022   116.6    62.6    15.7
2001 07 28.1  18 08.44   +33 16.3    0.015    1.023   117.8    61.4    15.7
2001 07 28.2  18 11.40   +32 14.9    0.016    1.023   119.0    60.3    15.7
2001 07 28.3  18 14.20   +31 15.3    0.016    1.023   120.1    59.2    15.7
2001 07 28.4  18 16.84   +30 17.5    0.016    1.024   121.2    58.1    15.7
2001 07 28.5  18 19.36   +29 21.4    0.016    1.024   122.2    57.0    15.7
2001 07 28.6  18 21.74   +28 27.0    0.017    1.025   123.2    56.0    15.7
2001 07 28.7  18 24.01   +27 34.3    0.017    1.025   124.2    55.0    15.7
2001 07 28.8  18 26.17   +26 43.3    0.017    1.025   125.1    54.1    15.7
2001 07 28.9  18 28.22   +25 53.8    0.018    1.026   126.0    53.2    15.7
2001 07 29.0  18 30.18   +25 05.8    0.018    1.026   126.9    52.3    15.7
2001 07 29.1  18 32.05   +24 19.4    0.018    1.026   127.7    51.5    15.7
2001 07 29.2  18 33.84   +23 34.4    0.018    1.027   128.5    50.7    15.8
2001 07 29.3  18 35.55   +22 50.9    0.019    1.027   129.3    49.9    15.8
2001 07 29.4  18 37.19   +22 08.7    0.019    1.028   130.1    49.1    15.8
2001 07 29.5  18 38.75   +21 27.8    0.019    1.028   130.8    48.4    15.8
2001 07 29.6  18 40.26   +20 48.2    0.020    1.028   131.5    47.7    15.8
2001 07 29.7  18 41.70   +20 09.8    0.020    1.029   132.2    47.0    15.8
2001 07 29.8  18 43.09   +19 32.7    0.020    1.029   132.8    46.4    15.9
2001 07 29.9  18 44.42   +18 56.6    0.021    1.030   133.4    45.7    15.9
2001 07 30.0  18 45.70   +18 21.7    0.021    1.030   134.0    45.1    15.9

Gareth V. Williams           (C) Copyright 2001 MPC           M.P.E.C. 2001-O37

Read MPEC 2001-O36 Read MPEC 2001-O38


Our Web policy. Index to the CBAT/MPC/ICQ pages.


Valid HTML 4.01!